This is the latest recevied weather packets stored in our database for station/object WD7CGF. If no packets are shown the sender has not sent any weather packets the latest 10 day(s).
| Time | Temp. | Humidity | Pressure | Rain* | Wind** | Luminosity | Snow |
|---|---|---|---|---|---|---|---|
| 1777476509 | 12.22° C | 67% | 1023.1 hPa | 0 mm | - | - | - |
| 1777475914 | 11.67° C | 68% | 1023.1 hPa | 0 mm | - | - | - |
| 1777475317 | 11.67° C | 69% | 1023.2 hPa | 0 mm | - | - | - |
| 1777474704 | 10.56° C | 70% | 1023.1 hPa | 0 mm | - | - | - |
| 1777474112 | 10° C | 73% | 1023.1 hPa | 0 mm | - | - | - |
| 1777473498 | 8.89° C | 76% | 1023.3 hPa | 0 mm | - | - | - |
| 1777472910 | 7.78° C | 77% | 1022.5 hPa | 0 mm | - | - | - |
| 1777472298 | 7.22° C | 80% | 1022.5 hPa | 0 mm | - | - | - |
| 1777471702 | 6.11° C | 82% | 1022.3 hPa | 0 mm | - | - | - |
| 1777471112 | 5.56° C | 83% | 1022.3 hPa | 0 mm | - | - | - |
| 1777470517 | 5° C | 84% | 1022.3 hPa | 0 mm | - | - | - |
| 1777469905 | 5° C | 84% | 1021.9 hPa | 0 mm | - | - | - |
| 1777469313 | 5° C | 83% | 1021.8 hPa | 0 mm | - | - | - |
| 1777468704 | 5° C | 83% | 1021.8 hPa | 0 mm | - | - | - |
| 1777468106 | 5° C | 83% | 1022.3 hPa | 0 mm | - | - | - |
| 1777466899 | 5.56° C | 82% | 1022.3 hPa | 0 mm | - | - | - |
| 1777466311 | 5.56° C | 81% | 1022.1 hPa | 0 mm | - | - | - |
| 1777465700 | 5.56° C | 80% | 1022 hPa | 0 mm | - | - | - |
| 1777465105 | 6.11° C | 79% | 1022 hPa | 0 mm | - | - | - |
| 1777464510 | 6.11° C | 78% | 1021.7 hPa | 0 mm | - | - | - |
| 1777463916 | 6.67° C | 78% | 1021.6 hPa | 0 mm | - | - | - |
| 1777463304 | 7.22° C | 78% | 1021.6 hPa | 0 mm | - | - | - |
| 1777462711 | 7.22° C | 78% | 1021.5 hPa | 0 mm | - | - | - |
| 1777462117 | 7.22° C | 77% | 1021.4 hPa | 0 mm | - | - | - |
| 1777461505 | 7.22° C | 78% | 1021.4 hPa | 0 mm | - | - | - |
* Rain since midnight (hover to see other rain measurements)
** Current wind speed in m/s (hover to see current wind gust speed)